Weather History for Kogalniceanu, Romania

Change the Weather History Date:

Tuesday, September 24, 2013

  Actual Average Record
Temperature  
Mean Temperature 63 °F -  
Max Temperature 71 °F 63 °F 91 °F (2001)
Min Temperature 53 °F 46 °F 44 °F (1997)
Degree Days  
Heating Degree Days 2    
Growing Degree Days 13 (Base 50)    
Moisture  
Dew Point 45 °F    
Average Humidity 56    
Maximum Humidity 77    
Minimum Humidity 35    
Precipitation  
Precipitation 0.00 in - - ()
Sea Level Pressure  
Sea Level Pressure 29.77 in    
Wind  
Wind Speed 9 mph ()    
Max Wind Speed 16 mph    
Max Gust Speed -    
Visibility 6.2 miles    
Events Rain    
Averages and records for this station are not official NWS values.
T = Trace of Precipitation, MM = Missing Value Source: Averaged Metar Reports

Daily Weather History Graph

Daily Weather History Graph

Search for Another Location

Airport:

Trip Planner

Search our weather history database for the weather conditions in past years. The results will help you decide how hot, cold, wet, or windy it might be!

Date:

Astronomy

Sep. 24, 2013 Rise Set
Actual Time 6:55 AM EEST 7:00 PM EEST
Civil Twilight 6:26 AM EEST 7:28 PM EEST
Nautical Twilight 5:52 AM EEST 8:02 PM EEST
Astronomical Twilight 5:18 AM EEST 8:37 PM EEST
Moon 9:51 PM EEST (9/24) 12:03 PM EEST (9/24)
Length of Visible Light 13h 02m
Length of Day
12h 04m
Waning Gibbous, 75% of the Moon is Illuminated
Sep 24
Waning Gibbous
Sep 27
Last Quarter
Oct 5
New
Oct 12
First Quarter
Oct 19
Full

Hourly Weather History & Observations

Time (EEST) Temp. Dew Point Humidity Pressure Visibility Wind Dir Wind Speed Gust Speed Precip Events Conditions
12:00 AM 60.8 °F 42.8 °F 52% 29.77 in - West 9.2 mph - N/A   Clear
12:30 AM 60.8 °F 42.8 °F 52% 29.77 in - West 8.1 mph - N/A   Clear
1:00 AM 59.0 °F 42.8 °F 55% 29.77 in - West 8.1 mph - N/A   Clear
1:30 AM 59.0 °F 42.8 °F 55% 29.77 in - West 8.1 mph - N/A   Clear
2:00 AM 59.0 °F 44.6 °F 59% 29.77 in - West 10.4 mph - N/A   Clear
2:30 AM 59.0 °F 44.6 °F 59% 29.74 in - WSW 8.1 mph - N/A   Clear
3:00 AM 57.2 °F 44.6 °F 63% 29.74 in - WSW 10.4 mph - N/A   Clear
3:30 AM 57.2 °F 44.6 °F 63% 29.74 in - WSW 10.4 mph - N/A   Clear
4:00 AM 57.2 °F 46.4 °F 67% 29.71 in - WSW 8.1 mph - N/A   Clear
4:30 AM 57.2 °F 46.4 °F 67% 29.71 in - West 11.5 mph - N/A   Clear
5:00 AM 57.2 °F 46.4 °F 67% 29.71 in - West 11.5 mph - N/A   Clear
5:30 AM 57.2 °F 46.4 °F 67% 29.71 in - West 13.8 mph - N/A   Clear
6:00 AM 57.2 °F 48.2 °F 72% 29.71 in - West 13.8 mph - N/A   Clear
6:30 AM 57.2 °F 48.2 °F 72% 29.71 in - West 16.1 mph - N/A   Clear
7:00 AM 57.2 °F 48.2 °F 72% 29.71 in - WSW 13.8 mph - N/A   Clear
7:30 AM 57.2 °F 48.2 °F 72% 29.71 in - West 12.7 mph - N/A   Clear
8:00 AM 57.2 °F 48.2 °F 72% 29.71 in 6.2 mi West 9.2 mph - N/A Rain Light Rain
8:30 AM 57.2 °F 50.0 °F 77% 29.71 in 6.2 mi West 10.4 mph - N/A   Partly Cloudy
9:00 AM 57.2 °F 50.0 °F 77% 29.71 in 6.2 mi West 15.0 mph - N/A   Partly Cloudy
9:30 AM 60.8 °F 50.0 °F 68% 29.74 in - West 13.8 mph - N/A   Clear
10:00 AM 60.8 °F 50.0 °F 68% 29.77 in 6.2 mi West 13.8 mph - N/A   Scattered Clouds
10:30 AM 60.8 °F 48.2 °F 63% 29.77 in 6.2 mi NW 11.5 mph - N/A   Mostly Cloudy
11:00 AM 60.8 °F 48.2 °F 63% 29.77 in 6.2 mi North 10.4 mph - N/A   Scattered Clouds
11:30 AM 64.4 °F 44.6 °F 49% 29.77 in 6.2 mi North 6.9 mph - N/A   Partly Cloudy
12:00 PM 64.4 °F 44.6 °F 49% 29.80 in 6.2 mi NNW 9.2 mph - N/A   Scattered Clouds
12:30 PM 64.4 °F 42.8 °F 45% 29.80 in 6.2 mi NW 8.1 mph - N/A   Partly Cloudy
1:00 PM 66.2 °F 41.0 °F 40% 29.80 in - NW 5.8 mph - N/A   Clear
1:30 PM 66.2 °F 41.0 °F 40% 29.80 in - NNW 6.9 mph - N/A   Clear
2:00 PM 68.0 °F 42.8 °F 40% 29.77 in - WNW 10.4 mph - N/A   Clear
2:30 PM 68.0 °F 42.8 °F 40% 29.80 in - West 9.2 mph - N/A   Clear
3:00 PM 69.8 °F 44.6 °F 40% 29.77 in - West 8.1 mph - N/A   Clear
3:30 PM 71.6 °F 42.8 °F 35% 29.80 in - West 12.7 mph - N/A   Clear
4:00 PM 69.8 °F 42.8 °F 38% 29.77 in - WSW 8.1 mph - N/A   Clear
4:30 PM 69.8 °F 42.8 °F 38% 29.77 in - West 12.7 mph - N/A   Clear
5:00 PM 69.8 °F 42.8 °F 38% 29.77 in - WNW 11.5 mph - N/A   Clear
5:30 PM 69.8 °F 42.8 °F 38% 29.77 in - West 15.0 mph - N/A   Clear
6:00 PM 69.8 °F 41.0 °F 35% 29.77 in - WNW 15.0 mph - N/A   Clear
6:30 PM 69.8 °F 41.0 °F 35% 29.80 in 6.2 mi WNW 11.5 mph - N/A   Partly Cloudy
7:00 PM 66.2 °F 44.6 °F 46% 29.80 in 6.2 mi WNW 10.4 mph - N/A Rain Light Rain
7:30 PM 62.6 °F 44.6 °F 52% 29.80 in 6.2 mi West 6.9 mph - N/A   Partly Cloudy
8:00 PM 64.4 °F 42.8 °F 45% 29.80 in - WNW 6.9 mph - N/A   Clear
8:30 PM 62.6 °F 44.6 °F 52% 29.83 in - West 4.6 mph - N/A   Clear
9:00 PM 60.8 °F 42.8 °F 52% 29.83 in - NW 5.8 mph - N/A   Clear
9:30 PM 60.8 °F 42.8 °F 52% 29.83 in - WNW 4.6 mph - N/A   Clear
10:00 PM 59.0 °F 46.4 °F 63% 29.83 in - WNW 5.8 mph - N/A   Clear
10:30 PM 55.4 °F 46.4 °F 72% 29.86 in - WNW 6.9 mph - N/A   Clear
11:00 PM 55.4 °F 46.4 °F 72% 29.86 in - WNW 6.9 mph - N/A   Clear
11:30 PM 53.6 °F 44.6 °F 72% 29.86 in - WNW 4.6 mph - N/A   Clear